Weather in Izykhskiye Kopi

Russia / Republic of Khakassia     53°33′02″N   91°17′12″E
temp.,
°C
wind,
m/s
gust,
m/s
humid.,
%
clouds,
%
prec.,
mm/h
press.,
hPa
HPBL,
m
23 april, fri
fri2301:00−1n486525 0.0 1038228
04:00−1n36705 0.0 1038220
07:00−1n466589 0.0 1039392
10:00+2nne5547100 0.0 1039931
13:00+5nne4539100 0.0 10371297
16:00+6nne3436100 0.0 10351724
19:00+6n1145100 0.0 103455
22:00+4nnw3564100 0.0 1034121
24 april, sat
sat2401:00+2nnw357469 0.0 1033130
04:000nw358260 0.0 103298
07:00+1nw367778 0.0 1032337
10:00+4nw335979 0.0 10301085
13:00+5n125198 0.0 10291199
16:00+7n2343100 0.0 10281628
19:00+7n2245100 0.0 10281542
22:00+4sw347479 0.0 1030137
25 april, sun
sun2501:00+2sw239595 0.1 1030284
04:00+2sw368273 0.0 1030185
07:00+1ssw247969 0.0 1031167
10:00+5wsw336286 0.2 1031877
13:00+7w234791 0.9 10301431
16:00+8nnw3344100 0.3 10291610
19:00+6n346195 0.6 1030686
22:00+4wsw347399 0.3 1031171
26 april, mon
mon2601:00+2sw239165 0.5 103286
04:00+1sw229618 0.0 103226
07:00+2ssw12917 0.0 1032100
10:00+5ssw116524 0.0 1032863
13:00+9sw014593 0.1 10301672
16:00+10ese113890 0.0 10291861
19:00+10ese113921 0.0 10281584
22:00+6se235613 0.0 102837
27 april, tue
tue2701:00+4se3367100 0.0 102763
04:00+3sse237085 0.0 102645
07:00+4sse247145 0.0 1025132
10:00+9s3547100 0.0 1022472
13:00+8sw101669100 0.5 10211198
16:00+8wsw8116942 0.1 1022944
19:00+8sw61072100 0.6 1023777
22:00+5sw3583100 1.3 102483